Time,TemperatureF,DewpointF,PressureIn,WindDirection,WindDirectionDegrees,WindSpeedMPH,WindSpeedGustMPH,Humidity,HourlyPrecipIn,Conditions,Clouds,dailyrainin,SolarRadiationWatts/m^2,SoftwareType,DateUTC
2013-08-30 00:02:00,53.0,52.0,-100.00,South,174,4.0,15.0,98,0.01,,,1.09,0.000000,,2013-08-30 07:02:00,
2013-08-30 00:12:00,53.0,52.0,-100.00,South,174,4.0,15.0,98,0.01,,,1.09,0.000000,,2013-08-30 07:12:00,
2013-08-30 00:21:00,53.0,52.0,-100.00,South,174,4.0,15.0,98,0.01,,,1.09,0.000000,,2013-08-30 07:21:00,
2013-08-30 00:53:00,52.0,51.0,-100.00,South,176,5.0,14.0,95,0.00,,,1.08,0.000000,,2013-08-30 07:53:00,
2013-08-30 01:03:00,52.0,51.0,-100.00,South,176,5.0,14.0,95,0.00,,,1.08,0.000000,,2013-08-30 08:03:00,
2013-08-30 01:11:00,52.0,51.0,-100.00,South,176,5.0,14.0,95,0.00,,,1.08,0.000000,,2013-08-30 08:11:00,
2013-08-30 01:22:00,52.0,51.0,-100.00,South,176,5.0,14.0,95,0.00,,,1.08,0.000000,,2013-08-30 08:22:00,
2013-08-30 01:52:00,52.0,50.0,-100.00,SSE,160,5.0,16.0,92,0.00,,,1.08,0.000000,,2013-08-30 08:52:00,
2013-08-30 02:01:00,52.0,50.0,-100.00,SSE,160,5.0,16.0,92,0.00,,,1.08,0.000000,,2013-08-30 09:01:00,
2013-08-30 02:12:00,52.0,50.0,-100.00,SSE,160,5.0,16.0,92,0.00,,,1.08,0.000000,,2013-08-30 09:12:00,
2013-08-30 02:22:00,52.0,50.0,-100.00,SSE,160,5.0,16.0,92,0.00,,,1.08,0.000000,,2013-08-30 09:22:00,
2013-08-30 02:53:00,52.0,51.0,-100.00,South,176,3.0,16.0,95,0.04,,,-99.99,0.000000,,2013-08-30 09:53:00,
2013-08-30 03:03:00,52.0,51.0,-100.00,South,176,3.0,16.0,95,0.04,,,-99.99,0.000000,,2013-08-30 10:03:00,
2013-08-30 03:12:00,52.0,51.0,-100.00,South,176,3.0,16.0,95,0.04,,,-99.99,0.000000,,2013-08-30 10:12:00,
2013-08-30 03:23:00,52.0,51.0,-100.00,South,176,3.0,16.0,95,0.04,,,-99.99,0.000000,,2013-08-30 10:23:00,
2013-08-30 03:53:00,52.0,51.0,-100.00,SSE,148,3.0,10.0,97,0.07,,,1.19,0.000000,,2013-08-30 10:53:00,
2013-08-30 04:03:00,52.0,51.0,-100.00,SSE,148,3.0,10.0,97,0.07,,,1.19,0.000000,,2013-08-30 11:03:00,
2013-08-30 04:12:00,52.0,51.0,-100.00,SSE,148,3.0,10.0,97,0.07,,,1.19,0.000000,,2013-08-30 11:12:00,
2013-08-30 04:22:00,52.0,51.0,-100.00,SSE,148,3.0,10.0,97,0.07,,,1.19,0.000000,,2013-08-30 11:22:00,
2013-08-30 04:52:00,52.0,51.0,-100.00,SSE,166,1.0,7.0,98,0.11,,,1.30,0.000000,,2013-08-30 11:52:00,
2013-08-30 05:01:00,52.0,51.0,-100.00,SSE,166,1.0,7.0,98,0.11,,,1.30,0.000000,,2013-08-30 12:01:00,
2013-08-30 05:12:00,52.0,51.0,-100.00,SSE,166,1.0,7.0,98,0.11,,,1.30,0.000000,,2013-08-30 12:12:00,
2013-08-30 05:21:00,52.0,51.0,-100.00,SSE,166,1.0,7.0,98,0.11,,,1.30,0.000000,,2013-08-30 12:21:00,
2013-08-30 05:52:00,52.0,51.0,-100.00,South,177,2.0,7.0,98,0.04,,,1.34,0.000000,,2013-08-30 12:52:00,
2013-08-30 06:02:00,52.0,51.0,-100.00,South,177,2.0,7.0,98,0.04,,,1.34,0.000000,,2013-08-30 13:02:00,
2013-08-30 06:11:00,52.0,51.0,-100.00,South,177,2.0,7.0,98,0.04,,,1.34,0.000000,,2013-08-30 13:11:00,
2013-08-30 06:21:00,52.0,51.0,-100.00,South,177,2.0,7.0,98,0.04,,,1.34,0.000000,,2013-08-30 13:21:00,
2013-08-30 06:52:00,52.0,51.0,-100.00,South,169,3.0,11.0,97,0.00,,,1.33,0.000000,,2013-08-30 13:52:00,
2013-08-30 07:02:00,52.0,51.0,-100.00,South,169,3.0,11.0,97,0.00,,,1.33,0.000000,,2013-08-30 14:02:00,
2013-08-30 07:11:00,52.0,51.0,-100.00,South,169,3.0,11.0,97,0.00,,,1.33,0.000000,,2013-08-30 14:11:00,
2013-08-30 07:21:00,52.0,51.0,-100.00,South,169,3.0,11.0,97,0.00,,,1.33,0.000000,,2013-08-30 14:21:00,
2013-08-30 07:52:00,52.0,51.0,-100.00,South,179,3.0,8.0,97,0.04,,,1.36,6.000000,,2013-08-30 14:52:00,
2013-08-30 08:02:00,52.0,51.0,-100.00,South,179,3.0,8.0,97,0.04,,,1.36,6.000000,,2013-08-30 15:02:00,
2013-08-30 08:11:00,52.0,51.0,-100.00,South,179,3.0,8.0,97,0.04,,,1.36,6.000000,,2013-08-30 15:11:00,
2013-08-30 08:22:00,52.0,51.0,-100.00,South,179,3.0,8.0,97,0.04,,,1.36,6.000000,,2013-08-30 15:22:00,
2013-08-30 08:54:00,54.0,52.0,-100.00,SE,140,1.0,8.0,94,0.01,,,1.36,60.000000,,2013-08-30 15:54:00,
2013-08-30 09:05:00,54.0,52.0,-100.00,SE,140,1.0,8.0,94,0.01,,,1.36,60.000000,,2013-08-30 16:05:00,
2013-08-30 09:13:00,54.0,52.0,-100.00,SE,140,1.0,8.0,94,0.01,,,1.36,60.000000,,2013-08-30 16:13:00,
2013-08-30 09:24:00,54.0,52.0,-100.00,SE,140,1.0,8.0,94,0.01,,,1.36,60.000000,,2013-08-30 16:24:00,
2013-08-30 09:53:00,57.0,53.0,-100.00,ENE,78,1.0,8.0,87,0.00,,,1.36,245.000000,,2013-08-30 16:53:00,
2013-08-30 10:03:00,57.0,53.0,-100.00,ENE,78,1.0,8.0,87,0.00,,,1.36,245.000000,,2013-08-30 17:03:00,
2013-08-30 10:13:00,57.0,53.0,-100.00,ENE,78,1.0,8.0,87,0.00,,,1.36,245.000000,,2013-08-30 17:13:00,
2013-08-30 10:23:00,57.0,53.0,-100.00,ENE,78,1.0,8.0,87,0.00,,,1.36,245.000000,,2013-08-30 17:23:00,
2013-08-30 10:53:00,61.0,53.0,-100.00,NNW,334,1.0,8.0,76,0.00,,,-99.99,414.000000,,2013-08-30 17:53:00,
2013-08-30 11:02:00,61.0,53.0,-100.00,NNW,334,1.0,8.0,76,0.00,,,-99.99,414.000000,,2013-08-30 18:02:00,
2013-08-30 11:12:00,61.0,53.0,-100.00,NNW,334,1.0,8.0,76,0.00,,,-99.99,414.000000,,2013-08-30 18:12:00,
2013-08-30 11:21:00,61.0,53.0,-100.00,NNW,334,1.0,8.0,76,0.00,,,-99.99,414.000000,,2013-08-30 18:21:00,
2013-08-30 11:52:00,62.0,52.0,-100.00,WSW,256,2.0,6.0,70,0.00,,,1.17,545.000000,,2013-08-30 18:52:00,
2013-08-30 12:01:00,62.0,52.0,-100.00,WSW,256,2.0,6.0,70,0.00,,,1.17,545.000000,,2013-08-30 19:01:00,
2013-08-30 12:12:00,62.0,52.0,-100.00,WSW,256,2.0,6.0,70,0.00,,,1.17,545.000000,,2013-08-30 19:12:00,
2013-08-30 12:21:00,62.0,52.0,-100.00,WSW,256,2.0,6.0,70,0.00,,,1.17,545.000000,,2013-08-30 19:21:00,
2013-08-30 12:53:00,62.0,52.0,-100.00,NW,310,1.0,7.0,69,0.00,,,1.10,417.000000,,2013-08-30 19:53:00,
2013-08-30 13:03:00,62.0,52.0,-100.00,NW,310,1.0,7.0,69,0.00,,,1.10,417.000000,,2013-08-30 20:03:00,
2013-08-30 13:11:00,62.0,52.0,-100.00,NW,310,1.0,7.0,69,0.00,,,1.10,417.000000,,2013-08-30 20:11:00,
2013-08-30 13:22:00,62.0,52.0,-100.00,NW,310,1.0,7.0,69,0.00,,,1.10,417.000000,,2013-08-30 20:22:00,
2013-08-30 13:52:00,61.0,54.0,-100.00,NNW,334,4.0,10.0,78,0.00,,,1.10,598.000000,,2013-08-30 20:52:00,
2013-08-30 14:02:00,61.0,54.0,-100.00,NNW,334,4.0,10.0,78,0.00,,,1.10,598.000000,,2013-08-30 21:02:00,
2013-08-30 14:11:00,61.0,54.0,-100.00,NNW,334,4.0,10.0,78,0.00,,,1.10,598.000000,,2013-08-30 21:11:00,
2013-08-30 14:21:00,61.0,54.0,-100.00,NNW,334,4.0,10.0,78,0.00,,,1.10,598.000000,,2013-08-30 21:21:00,
2013-08-30 14:55:00,60.0,56.0,-100.00,NW,323,4.0,9.0,87,0.00,,,0.97,289.000000,,2013-08-30 21:55:00,
2013-08-30 15:04:00,60.0,56.0,-100.00,NW,323,4.0,9.0,87,0.00,,,0.97,289.000000,,2013-08-30 22:04:00,
2013-08-30 15:13:00,60.0,56.0,-100.00,NW,323,4.0,9.0,87,0.00,,,0.97,289.000000,,2013-08-30 22:13:00,
2013-08-30 15:24:00,60.0,56.0,-100.00,NW,323,4.0,9.0,87,0.00,,,0.97,289.000000,,2013-08-30 22:24:00,
2013-08-30 15:54:00,58.0,56.0,-100.00,WNW,296,1.0,10.0,92,0.00,,,0.85,142.000000,,2013-08-30 22:54:00,
2013-08-30 16:03:00,58.0,56.0,-100.00,WNW,296,1.0,10.0,92,0.00,,,0.85,142.000000,,2013-08-30 23:03:00,
2013-08-30 16:12:00,58.0,56.0,-100.00,WNW,296,1.0,10.0,92,0.00,,,0.85,142.000000,,2013-08-30 23:12:00,
2013-08-30 16:22:00,58.0,56.0,-100.00,WNW,296,1.0,10.0,92,0.00,,,0.85,142.000000,,2013-08-30 23:22:00,
2013-08-30 16:53:00,58.0,56.0,-100.00,NNW,342,3.0,7.0,93,0.00,,,0.81,166.000000,,2013-08-30 23:53:00,
2013-08-30 17:02:00,58.0,56.0,-100.00,NNW,342,3.0,7.0,93,0.00,,,0.81,166.000000,,2013-08-31 00:02:00,
2013-08-30 17:11:00,58.0,56.0,-100.00,NNW,342,3.0,7.0,93,0.00,,,0.81,166.000000,,2013-08-31 00:11:00,
2013-08-30 17:21:00,58.0,56.0,-100.00,NNW,342,3.0,7.0,93,0.00,,,0.81,166.000000,,2013-08-31 00:21:00,
2013-08-30 17:52:00,59.0,55.0,-100.00,West,272,4.0,7.0,88,0.00,,,0.77,188.000000,,2013-08-31 00:52:00,
2013-08-30 18:01:00,59.0,55.0,-100.00,West,272,4.0,7.0,88,0.00,,,0.77,188.000000,,2013-08-31 01:01:00,
2013-08-30 18:11:00,59.0,55.0,-100.00,West,272,4.0,7.0,88,0.00,,,0.77,188.000000,,2013-08-31 01:11:00,
2013-08-30 18:21:00,59.0,55.0,-100.00,West,272,4.0,7.0,88,0.00,,,0.77,188.000000,,2013-08-31 01:21:00,
2013-08-30 18:52:00,59.0,55.0,-100.00,West,274,4.0,9.0,88,0.00,,,0.68,199.000000,,2013-08-31 01:52:00,
2013-08-30 19:02:00,59.0,55.0,-100.00,West,274,4.0,9.0,88,0.00,,,0.68,199.000000,,2013-08-31 02:02:00,
2013-08-30 19:12:00,59.0,55.0,-100.00,West,274,4.0,9.0,88,0.00,,,0.68,199.000000,,2013-08-31 02:12:00,
2013-08-30 19:22:00,59.0,55.0,-100.00,West,274,4.0,9.0,88,0.00,,,0.68,199.000000,,2013-08-31 02:22:00,
2013-08-30 19:52:00,58.0,55.0,-100.00,West,260,2.0,8.0,90,0.00,,,0.59,122.000000,,2013-08-31 02:52:00,
2013-08-30 20:02:00,58.0,55.0,-100.00,West,260,2.0,8.0,90,0.00,,,0.59,122.000000,,2013-08-31 03:02:00,
2013-08-30 20:12:00,58.0,55.0,-100.00,West,260,2.0,8.0,90,0.00,,,0.59,122.000000,,2013-08-31 03:12:00,
2013-08-30 20:22:00,58.0,55.0,-100.00,West,260,2.0,8.0,90,0.00,,,0.59,122.000000,,2013-08-31 03:22:00,
2013-08-30 20:54:00,55.0,53.0,-100.00,West,276,2.0,5.0,93,0.00,,,0.57,11.000000,,2013-08-31 03:54:00,
2013-08-30 21:05:00,55.0,53.0,-100.00,West,276,2.0,5.0,93,0.00,,,0.57,11.000000,,2013-08-31 04:05:00,
2013-08-30 21:14:00,55.0,53.0,-100.00,West,276,2.0,5.0,93,0.00,,,0.57,11.000000,,2013-08-31 04:14:00,
2013-08-30 21:24:00,55.0,53.0,-100.00,West,276,2.0,5.0,93,0.00,,,0.57,11.000000,,2013-08-31 04:24:00,
2013-08-30 21:54:00,54.0,53.0,-100.00,WNW,288,0.0,3.0,97,0.00,,,0.56,0.000000,,2013-08-31 04:54:00,
2013-08-30 22:04:00,54.0,53.0,-100.00,WNW,288,0.0,3.0,97,0.00,,,0.56,0.000000,,2013-08-31 05:04:00,
2013-08-30 22:13:00,54.0,53.0,-100.00,WNW,288,0.0,3.0,97,0.00,,,0.56,0.000000,,2013-08-31 05:13:00,
2013-08-30 22:23:00,54.0,53.0,-100.00,WNW,288,0.0,3.0,97,0.00,,,0.56,0.000000,,2013-08-31 05:23:00,
2013-08-30 22:52:00,53.0,52.0,-100.00,South,174,0.0,3.0,98,0.00,,,0.32,0.000000,,2013-08-31 05:52:00,
2013-08-30 23:02:00,53.0,52.0,-100.00,South,174,0.0,3.0,98,0.00,,,0.32,0.000000,,2013-08-31 06:02:00,
2013-08-30 23:12:00,53.0,52.0,-100.00,South,174,0.0,3.0,98,0.00,,,0.32,0.000000,,2013-08-31 06:12:00,
2013-08-30 23:22:00,53.0,52.0,-100.00,South,174,0.0,3.0,98,0.00,,,0.32,0.000000,,2013-08-31 06:22:00,
2013-08-30 23:52:00,53.0,52.0,-100.00,South,171,0.0,1.0,98,0.00,,,0.31,0.000000,,2013-08-31 06:52:00,